x

Saxon Harbor, Wi (sxhw3) Weather Station

3:40pm - Tue 19th Sep 2017 All times are CDT. -5 hours from GMT.

  • Wind
    3mph, 5mph gusts
  • Air Temp 65°f
  • Sea Pressure 1011.5mb
  • Saxon Harbor, Wi
  • Saxon Harbor, Wi

More Historic Weather Station data

Upgrade to MSW Pro to gain access to the past 30 days of data for over 8000 Wavebouys and Weather Stations around the globe.

Join

Comparision Forecast

View Surf forecast
   
Tue 09/19 3:40pm 3 5 mph 1011.5mb 65f
3:30pm 5 6 mph 1011.5mb 66f
3:20pm 1 5 mph 1011.9mb 65f
3:10pm 3 5 mph 1011.9mb 65f
3:00pm 2 7 mph 1012.2mb 64f
2:40pm 2 6 mph 1012.5mb 64f
2:30pm 3 6 mph 1012.5mb 64f
2:20pm 5 7 mph 1012.5mb 64f
2:10pm 6 7 mph 1012.5mb 65f
2:00pm 6 7 mph 1012.9mb 64f
1:40pm 3 6 mph 1013.2mb 65f
1:30pm 5 6 mph 1013.2mb 65f
1:20pm 3 6 mph 1013.2mb 67f
1:10pm 3 5 mph 1013.5mb 67f
1:00pm 5 6 mph 1013.5mb 68f
12:40pm 5 6 mph 1013.9mb 67f
12:30pm 5 8 mph 1013.9mb 66f
12:20pm 7 7 mph 1014.2mb 67f
12:10pm 5 8 mph 1014.2mb 66f
12:00pm 5 7 mph 1014.2mb 65f
11:40am 7 10 mph 1014.2mb 65f
11:30am 8 13 mph 1014.2mb 71f
11:20am 9 14 mph 1014.2mb 71f
11:10am 8 11 mph 1014.2mb 70f
11:00am 8 13 mph 1014.2mb 70f
10:40am 8 13 mph 1014.2mb 69f
10:30am 5 8 mph 1014.2mb 67f
10:20am 3 14 mph 1014.2mb 66f
10:10am 6 9 mph 1014.6mb 66f
10:00am 5 10 mph 1014.2mb 65f
9:40am 5 9 mph 1014.6mb 64f
9:30am 7 10 mph 1014.6mb 63f
9:20am 5 10 mph 1014.6mb 63f
9:10am 6 10 mph 1014.6mb 63f
9:00am 6 11 mph 1014.6mb 62f
8:40am 6 9 mph 1014.6mb 61f
8:30am 6 11 mph 1014.6mb 61f
8:20am 7 13 mph 1014.6mb 61f
8:10am 6 9 mph 1014.6mb 61f
8:00am 3 8 mph 1014.6mb 60f
7:40am 5 9 mph 1014.6mb 60f
7:30am 5 8 mph 1014.6mb 60f
7:20am 5 8 mph 1014.6mb 60f
7:10am 3 7 mph 1014.6mb 60f
7:00am 5 8 mph 1014.6mb 60f
6:40am 3 6 mph 1014.9mb 60f
6:30am 3 7 mph 1014.6mb 60f
6:20am 2 6 mph 1014.6mb 60f
6:10am 3 6 mph 1014.6mb 60f
6:00am 5 7 mph 1014.9mb 60f
5:40am 3 8 mph 1014.6mb 60f
5:30am 3 6 mph 1014.6mb 60f
5:20am 2 9 mph 1014.6mb 60f
5:10am 3 6 mph 1014.9mb 60f
5:00am 3 7 mph 1014.9mb 58f
4:40am  -  2 mph 1014.9mb 58f
4:30am 1 2 mph 1014.9mb 58f
4:20am 1 5 mph 1014.9mb 59f
4:10am 3 7 mph 1014.9mb 60f
4:00am 3 7 mph 1015.2mb 60f
3:40am 5 7 mph 1014.9mb 60f
3:30am 2 9 mph 1014.9mb 60f
3:20am 5 8 mph 1014.9mb 60f
3:10am 3 9 mph 1014.9mb 60f
3:00am 5 9 mph 1014.9mb 60f
2:40am 5 9 mph 1014.9mb 60f
2:30am 5 9 mph 1014.9mb 60f
2:20am 5 9 mph 1014.9mb 60f
2:10am 3 8 mph 1014.9mb 59f
2:00am 3 8 mph 1014.9mb 59f
1:40am 3 6 mph 1015.2mb 59f
1:30am 2 6 mph 1015.2mb 59f
1:20am 2 7 mph 1015.6mb 59f
1:10am 1 6 mph 1015.6mb 58f
1:00am 1 3 mph 1015.6mb 57f
12:40am 1 2 mph 1015.6mb 56f
12:30am 1 2 mph 1015.9mb 56f
12:20am 1 2 mph 1015.9mb 56f
12:10am  -  2 mph 1016.3mb 56f
12:00am  -  1 mph 1016.3mb 56f
Mon 09/18 11:40pm  -  2 mph 1016.3mb 56f
11:30pm 1 2 mph 1015.9mb 56f
11:20pm 1 2 mph 1016.3mb 56f
11:10pm 1 2 mph 1016.3mb 56f
11:00pm 1 2 mph 1016.6mb 56f
9:40pm  -  0 mph 1016.3mb 56f
9:30pm  -  1 mph 1016.3mb 56f
9:20pm  -  1 mph 1016.6mb 56f
9:10pm  -  1 mph 1016.6mb 56f
9:00pm  -  2 mph 1016.6mb 55f
8:40pm  -  1 mph 1016.9mb 56f
8:30pm  -  1 mph 1016.9mb 55f
8:20pm  -  1 mph 1016.6mb 55f
8:10pm  -  1 mph 1016.6mb 55f
8:00pm  -  1 mph 1016.6mb 55f
7:40pm  -  2 mph 1016.6mb 56f
7:30pm  -  1 mph 1016.6mb 56f
7:20pm  -  0 mph 1016.6mb 56f
7:10pm  -  2 mph 1016.6mb 56f
7:00pm 1 2 mph 1016.9mb 56f
6:40pm 1 2 mph 1016.9mb 57f
6:30pm  -  2 mph 1016.9mb 57f
6:20pm 1 2 mph 1016.9mb 58f
6:10pm  -  1 mph 1016.9mb 57f
6:00pm  -  1 mph 1016.6mb 57f
5:40pm  -  1 mph 1016.6mb 58f
5:30pm  -  2 mph 1016.6mb 58f
5:20pm  -  2 mph 1016.6mb 58f
5:10pm  -  2 mph 1016.6mb 58f
5:00pm  -  3 mph 1016.6mb 58f
4:40pm  -  3 mph 1016.6mb 58f
4:30pm  -  3 mph 1016.9mb 58f
4:20pm  -  2 mph 1016.9mb 58f
4:10pm  -  3 mph 1017.3mb 58f
4:00pm  -  3 mph 1017.3mb 58f
3:50pm  -  5 mph 1017.3mb 58f
3:40pm 3 7 mph 1017.6mb 58f
3:30pm 5 8 mph 1017.9mb 58f
3:20pm 3 7 mph 1017.6mb 58f
3:10pm 5 10 mph 1017.9mb 58f
3:00pm 6 8 mph 1017.9mb 59f
2:50pm 2 5 mph 1017.6mb 60f
2:40pm 3 7 mph 1017.9mb 60f
2:30pm 2 3 mph 1017.9mb 60f
2:20pm  -  5 mph 1018.3mb 61f
2:10pm 3 6 mph 1018.3mb 61f
2:00pm 3 8 mph 1018.3mb 61f
1:50pm 6 10 mph 1018.3mb 60f
1:40pm 5 7 mph 1018.3mb 60f
1:30pm 5 6 mph 1018.6mb 60f
1:20pm 5 7 mph 1018.6mb 60f
1:10pm 2 7 mph 1018.6mb 59f
1:00pm 5 7 mph 1018.6mb 59f
12:50pm 5 6 mph 1018.6mb 59f
12:40pm 2 7 mph 1018.6mb 60f
12:30pm  -  3 mph 1019mb 60f
12:20pm  -  2 mph 1019mb 60f
12:10pm 2 5 mph 1019mb 60f
12:00pm  -  5 mph 1019.3mb 60f
11:50am 2 7 mph 1019.3mb 60f
11:40am 3 7 mph 1019.3mb 60f
11:30am  -  1 mph 1019.6mb 60f
11:20am  -  2 mph 1019.6mb 59f
11:10am  -  1 mph 1019.6mb 59f
11:00am  -  1 mph 1020mb 59f
10:50am  -  2 mph 1020mb 59f
10:40am  -  2 mph 1020mb 58f
10:30am 1 2 mph 1020.3mb 58f
10:20am 2 3 mph 1020.3mb 58f
10:10am 1 3 mph 1020.3mb 59f
10:00am 1 6 mph 1020mb 59f
9:50am 3 7 mph 1020mb 59f
9:40am 3 8 mph 1020mb 58f
9:30am 2 6 mph 1020mb 58f
9:20am 5 7 mph 1019.6mb 58f
9:10am 3 6 mph 1019.3mb 57f
9:00am 2 9 mph 1019.3mb 56f
8:50am 3 8 mph 1019.3mb 56f
8:40am 5 6 mph 1019.3mb 55f
8:30am 5 7 mph 1019.3mb 53f
8:20am 3 5 mph 1019.3mb 52f
8:10am 1 3 mph 1019.6mb 50f
8:00am 2 6 mph 1019.6mb 50f
7:50am 5 7 mph 1020mb 50f
7:40am 5 6 mph 1019.6mb 50f
7:30am 3 7 mph 1019.6mb 50f
7:20am 6 7 mph 1019.6mb 50f
7:10am 3 7 mph 1019.3mb 50f
7:00am 5 7 mph 1019.3mb 50f
6:50am 6 7 mph 1019.6mb 49f
6:40am 3 7 mph 1020mb 49f
6:30am 5 8 mph 1020mb 49f
6:20am 6 7 mph 1020mb 48f
6:10am 5 7 mph 1020mb 48f
6:00am 6 8 mph 1020mb 48f
5:50am 8 8 mph 1020mb 48f
5:40am 5 7 mph 1019.6mb 48f
5:30am 5 8 mph 1019.6mb 47f
5:20am 6 8 mph 1019.6mb 48f
5:10am 7 9 mph 1019.6mb 48f
5:00am 7 9 mph 1019.6mb 48f
4:50am 6 9 mph 1019.3mb 47f
4:40am 6 9 mph 1019.6mb 47f
4:30am 6 9 mph 1020mb 47f
4:20am 7 9 mph 1019.6mb 47f
4:10am 6 8 mph 1019.6mb 47f
4:00am 6 9 mph 1019.6mb 47f
3:50am 8 10 mph 1020mb 47f
3:40am 6 8 mph 1019.6mb 47f
3:30am 6 8 mph 1020mb 46f
3:20am 6 8 mph 1020mb 46f
3:10am 6 7 mph 1020mb 46f
3:00am 5 7 mph 1020.3mb 46f
2:50am 5 10 mph 1020mb 47f
2:40am 7 9 mph 1019.6mb 47f
2:30am 7 9 mph 1019.6mb 47f
2:20am 6 10 mph 1020mb 47f
2:10am 5 10 mph 1020mb 47f
2:00am 8 9 mph 1020mb 47f
1:50am 5 6 mph 1020mb 48f
1:40am 5 7 mph 1020mb 48f
1:30am 3 6 mph 1020mb 48f
1:20am 3 7 mph 1020mb 48f
1:10am 5 7 mph 1020mb 48f
1:00am 6 8 mph 1020mb 48f
12:50am 6 8 mph 1020.3mb 48f
12:40am 6 8 mph 1020mb 49f
12:30am 6 7 mph 1020mb 49f
12:20am 5 6 mph 1020.3mb 49f
12:10am 5 7 mph 1020.3mb 49f
12:00am 5 6 mph 1020.3mb 49f
Sun 09/17 11:50pm 5 7 mph 1020.3mb 49f
11:40pm 6 7 mph 1020.3mb 49f
11:30pm 5 6 mph 1020.3mb 50f
11:20pm 5 6 mph 1020.3mb 50f
11:10pm 5 7 mph 1020.3mb 50f
11:00pm 5 7 mph 1020.3mb 50f
10:50pm 6 7 mph 1020mb 51f
10:40pm 5 8 mph 1020mb 51f
10:30pm 7 8 mph 1020mb 51f
10:20pm 6 8 mph 1020mb 51f
10:10pm 6 7 mph 1020mb 51f
10:00pm 5 7 mph 1019.6mb 51f
9:50pm 6 7 mph 1019.6mb 51f
9:40pm 6 7 mph 1019.6mb 51f
9:30pm 5 7 mph 1019.3mb 52f
9:20pm 6 7 mph 1019.3mb 52f
9:10pm 5 8 mph 1019.3mb 52f
9:00pm 6 7 mph 1019.3mb 52f
8:50pm 3 6 mph 1019.3mb 52f
8:40pm 6 7 mph 1019mb 53f
8:30pm 6 7 mph 1019mb 53f
8:20pm 3 6 mph 1019mb 53f
8:10pm 5 6 mph 1019mb 54f
8:00pm 5 6 mph 1019mb 54f
7:50pm 5 7 mph 1019mb 55f
7:40pm 3 6 mph 1019mb 56f
7:30pm 3 5 mph 1018.6mb 57f
7:20pm 2 5 mph 1018.6mb 57f
7:10pm 2 5 mph 1018.6mb 58f
7:00pm 3 6 mph 1018.6mb 59f
6:50pm 3 6 mph 1018.6mb 59f
6:40pm 3 5 mph 1018.6mb 60f
6:30pm 2 3 mph 1018.3mb 62f
6:20pm 1 5 mph 1018.3mb 63f
6:10pm 2 5 mph 1018.3mb 65f
6:00pm 3 7 mph 1018.3mb 65f
5:50pm 6 10 mph 1018.3mb 65f
5:40pm 5 13 mph 1018.3mb 65f
5:30pm 7 9 mph 1018.3mb 66f
5:20pm 5 10 mph 1017.9mb 66f
5:10pm 5 14 mph 1017.9mb 66f
5:00pm 3 8 mph 1017.9mb 66f
4:50pm 5 8 mph 1017.9mb 65f
4:40pm 6 10 mph 1017.9mb 65f
4:30pm 5 10 mph 1017.9mb 65f
4:20pm 8 15 mph 1017.9mb 65f
4:10pm 1 6 mph 1017.9mb 66f
4:00pm 3 9 mph 1017.6mb 65f
3:50pm 7 15 mph 1017.6mb 65f
3:40pm 8 13 mph 1017.3mb 65f
3:30pm 9 15 mph 1017.3mb 65f
3:20pm 6 11 mph 1017.3mb 64f
3:10pm 9 14 mph 1017.3mb 64f
3:00pm 9 15 mph 1017.6mb 64f
2:50pm 11 17 mph 1017.3mb 64f
2:40pm 11 15 mph 1017.6mb 63f
2:30pm 3 15 mph 1017.6mb 63f
2:20pm 10 15 mph 1017.6mb 63f
2:10pm 10 16 mph 1017.9mb 62f
2:00pm 5 14 mph 1017.9mb 62f
1:50pm 11 17 mph 1017.9mb 63f
1:40pm 10 17 mph 1017.9mb 63f
1:30pm 9 14 mph 1017.9mb 62f
1:20pm 8 13 mph 1017.9mb 62f
1:10pm 8 15 mph 1017.9mb 61f
1:00pm 11 16 mph 1017.9mb 62f
12:50pm 9 17 mph 1018.3mb 62f
12:40pm 8 15 mph 1018.3mb 61f
12:30pm 11 16 mph 1018.3mb 61f
12:20pm 10 16 mph 1017.9mb 61f
12:10pm 8 18 mph 1017.9mb 61f
12:00pm 9 17 mph 1017.9mb 60f
11:50am 8 18 mph 1017.9mb 60f
11:40am 9 15 mph 1017.9mb 59f
11:30am 9 15 mph 1017.9mb 59f
11:20am 11 17 mph 1017.9mb 60f
11:10am 10 17 mph 1017.9mb 60f
11:00am 8 14 mph 1017.6mb 59f
10:50am 7 17 mph 1017.9mb 58f
10:40am 13 16 mph 1017.9mb 59f
10:30am 7 15 mph 1017.9mb 58f
10:20am 10 14 mph 1017.6mb 58f
10:10am 6 14 mph 1017.9mb 57f
10:00am 9 15 mph 1017.9mb 57f
9:50am 6 14 mph 1017.6mb 57f
9:40am 7 13 mph 1017.6mb 57f
9:30am 7 13 mph 1017.3mb 57f
9:20am 8 15 mph 1017.3mb 56f
9:10am 8 14 mph 1017.3mb 56f
9:00am 9 14 mph 1017.6mb 56f
8:50am 7 16 mph 1017.3mb 56f
8:40am 6 13 mph 1017.3mb 55f
8:30am 7 13 mph 1017.3mb 55f
8:20am 6 10 mph 1017.3mb 55f
8:10am 5 11 mph 1017.3mb 55f
8:00am 7 9 mph 1017.3mb 55f
7:50am 9 14 mph 1016.9mb 55f
7:40am 8 13 mph 1016.9mb 55f
7:30am 6 9 mph 1016.9mb 55f
7:20am 5 16 mph 1016.6mb 55f
7:10am 7 14 mph 1016.3mb 55f
7:00am 8 14 mph 1015.9mb 55f
6:50am 9 11 mph 1015.9mb 55f
6:40am 5 13 mph 1015.9mb 56f
6:30am 8 16 mph 1015.6mb 56f
6:20am 8 18 mph 1015.6mb 57f
6:10am 9 17 mph 1015.6mb 57f
6:00am 9 16 mph 1015.2mb 58f
5:50am 7 14 mph 1015.2mb 58f
5:40am 7 15 mph 1015.2mb 58f
5:30am 6 16 mph 1015.2mb 58f
5:20am 8 15 mph 1014.9mb 59f
5:10am 11 17 mph 1014.6mb 60f
5:00am 5 8 mph 1014.2mb 60f
4:50am 6 11 mph 1014.2mb 61f
4:40am 8 11 mph 1013.9mb 61f
4:30am 5 8 mph 1013.9mb 61f
4:20am 5 11 mph 1013.5mb 61f
4:10am 5 9 mph 1013.5mb 61f
4:00am 7 11 mph 1013.5mb 61f
3:50am 6 8 mph 1013.2mb 61f
3:40am 2 9 mph 1013.2mb 61f
3:30am 6 13 mph 1013.2mb 62f
3:20am 6 13 mph 1013.2mb 62f
3:10am 8 14 mph 1012.9mb 62f
3:00am 6 13 mph 1012.9mb 63f
2:50am 9 15 mph 1012.5mb 63f
2:40am 6 10 mph 1012.5mb 64f
2:30am 7 13 mph 1012.2mb 65f
2:20am 7 11 mph 1012.2mb 65f
2:10am 10 13 mph 1012.2mb 66f
2:00am 5 6 mph 1012.2mb 66f
1:50am 5 10 mph 1012.2mb 67f
1:40am 6 8 mph 1012.2mb 67f
1:30am 6 9 mph 1012.2mb 67f
1:20am 7 11 mph 1012.2mb 67f
1:10am 3 8 mph 1012.2mb 67f
1:00am 3 8 mph 1012.2mb 67f
12:50am 3 10 mph 1011.9mb 67f
12:40am 6 7 mph 1012.2mb 67f
12:30am 3 5 mph 1011.9mb 68f
12:20am 3 8 mph 1011.9mb 67f
12:10am 5 6 mph 1012.2mb 66f
12:00am 3 5 mph 1012.2mb 65f
Sat 09/16 11:50pm 1 2 mph 1012.2mb 65f
11:40pm 1 2 mph 1011.9mb 65f
11:30pm  -  1 mph 1011.9mb 65f
11:20pm  -  2 mph 1011.9mb 65f
11:10pm 1 3 mph 1011.9mb 65f
11:00pm  -  1 mph 1011.9mb 65f
10:50pm  -  1 mph 1011.5mb 65f
10:40pm 1 3 mph 1011.5mb 65f
10:30pm  -  2 mph 1011.5mb 65f
10:20pm  -  3 mph 1011.9mb 65f
10:10pm 1 7 mph 1011.9mb 65f
10:00pm 3 5 mph 1011.9mb 65f
9:50pm 1 3 mph 1011.9mb 66f
9:40pm  -  3 mph 1011.9mb 65f
9:30pm  -  5 mph 1011.9mb 65f
9:20pm  -  3 mph 1011.5mb 65f
9:10pm 1 5 mph 1011.5mb 65f
9:00pm 5 6 mph 1011.5mb 66f
8:50pm 2 2 mph 1011.5mb 67f
8:40pm 1 2 mph 1011.5mb 67f
8:30pm  -  2 mph 1011.5mb 67f
8:20pm 1 3 mph 1011.5mb 67f
8:10pm 3 8 mph 1011.2mb 67f
8:00pm 5 6 mph 1011.2mb 67f
7:50pm 3 6 mph 1011.2mb 67f
7:40pm 3 5 mph 1011.5mb 67f
7:30pm 1 3 mph 1011.5mb 66f
7:20pm 2 2 mph 1011.5mb 66f
7:10pm 1 2 mph 1011.5mb 66f
7:00pm  -  3 mph 1011.9mb 66f
6:50pm 2 6 mph 1011.9mb 66f
6:40pm 3 5 mph 1011.9mb 66f
6:30pm 3 5 mph 1011.9mb 67f
6:20pm 1 3 mph 1011.9mb 67f
6:10pm 2 5 mph 1011.9mb 67f
6:00pm 2 5 mph 1011.5mb 69f
5:50pm  -  7 mph 1011.9mb 69f
5:40pm 2 9 mph 1011.9mb 69f
5:30pm 7 9 mph 1011.9mb 69f
5:20pm 6 7 mph 1011.5mb 70f
5:10pm 2 5 mph 1011.9mb 70f
5:00pm 3 6 mph 1011.5mb 70f
4:50pm 2 6 mph 1011.5mb 71f
4:40pm 6 8 mph 1011.2mb 72f
4:30pm 6 8 mph 1011.5mb 71f
4:20pm 8 9 mph 1011.2mb 73f
4:10pm 6 6 mph 1011.5mb 76f
4:00pm  -  1 mph 1011.5mb 78f
3:50pm  -  1 mph 1011.5mb 76f
3:40pm  -  3 mph 1011.9mb 77f
3:30pm  -  3 mph 1011.9mb 78f
3:20pm  -  2 mph 1011.9mb 77f
3:10pm  -  5 mph 1011.9mb 76f
3:00pm  -  5 mph 1011.5mb 80f
2:50pm 3 6 mph 1011.5mb 79f
2:40pm 5 9 mph 1011.5mb 80f
2:30pm 5 11 mph 1011.2mb 80f
2:20pm 9 16 mph 1011.2mb 81f
2:10pm 8 16 mph 1011.2mb 82f
2:00pm 10 16 mph 1010.8mb 82f
1:50pm 14 26 mph 1011.2mb 82f
1:40pm 15 23 mph 1011.2mb 81f
1:30pm 15 21 mph 1011.2mb 79f
1:20pm 3 6 mph 1011.2mb 74f
1:10pm 2 3 mph 1011.2mb 72f
1:00pm 2 3 mph 1011.2mb 72f
12:50pm 2 3 mph 1011.2mb 72f
11:40am 2 3 mph 1011.5mb 74f
11:30am 2 7 mph 1011.2mb 75f
11:20am 5 11 mph 1011.2mb 75f
10:40am 6 10 mph 1011.9mb 74f
10:30am 8 15 mph 1011.5mb 74f
10:20am 6 15 mph 1011.5mb 74f
10:10am 11 16 mph 1011.9mb 74f
10:00am 7 17 mph 1011.5mb 74f
9:50am 5 14 mph 1011.5mb 73f
9:40am 10 22 mph 1011.5mb 73f
9:30am 11 17 mph 1011.5mb 73f
9:20am 9 18 mph 1011.5mb 73f
9:10am 13 20 mph 1011.2mb 73f
9:00am 13 16 mph 1011.2mb 73f
8:50am 8 18 mph 1011.2mb 73f
8:40am 9 20 mph 1011.2mb 73f
8:30am 13 17 mph 1011.2mb 73f
8:20am 11 21 mph 1011.2mb 73f
8:10am 11 18 mph 1011.2mb 73f
8:00am 9 17 mph 1010.8mb 73f
7:50am 11 16 mph 1010.8mb 73f
7:40am 8 17 mph 1010.5mb 73f
7:30am 6 15 mph 1010.5mb 73f
7:20am 8 15 mph 1010.5mb 73f
7:10am 8 14 mph 1010.2mb 73f
7:00am 6 15 mph 1010.2mb 73f
6:50am 8 15 mph 1010.2mb 73f
6:40am 8 14 mph 1010.2mb 73f
6:30am 8 16 mph 1010.2mb 73f
6:20am 8 15 mph 1009.8mb 73f
6:10am 7 13 mph 1009.8mb 73f
6:00am 7 16 mph 1009.5mb 73f
5:50am 9 16 mph 1009.5mb 74f
5:40am 11 20 mph 1009.5mb 74f
5:30am 11 17 mph 1009.5mb 73f
5:20am 9 15 mph 1009.5mb 72f
5:10am 9 15 mph 1009.5mb 72f
5:00am 7 15 mph 1009.5mb 71f
4:50am 8 13 mph 1009.5mb 69f
4:40am 6 9 mph 1009.5mb 62f
4:30am 3 7 mph 1009.8mb 60f
4:20am 2 7 mph 1009.8mb 60f
4:10am 1 5 mph 1010.2mb 59f
4:00am  -  3 mph 1010.2mb 59f
3:50am 2 2 mph 1010.5mb 60f
3:40am 1 3 mph 1010.2mb 59f
3:30am  -  2 mph 1010.2mb 59f
3:20am  -  2 mph 1010.5mb 59f
3:10am  -  2 mph 1010.5mb 59f
3:00am  -  2 mph 1010.5mb 59f
2:50am  -  3 mph 1010.5mb 60f
2:40am  -  3 mph 1010.5mb 60f
2:30am  -  2 mph 1010.8mb 60f
2:20am  -  2 mph 1010.8mb 60f
2:10am 1 2 mph 1010.8mb 60f
2:00am 2 3 mph 1010.8mb 60f
1:50am 2 2 mph 1011.2mb 60f
1:40am 1 3 mph 1011.2mb 60f
1:30am 2 3 mph 1011.2mb 60f
1:20am 1 2 mph 1011.5mb 60f
1:10am 2 2 mph 1011.5mb 60f
1:00am 1 2 mph 1011.5mb 60f
12:50am  -  2 mph 1011.5mb 60f
12:40am 1 2 mph 1011.5mb 60f
12:30am  -  1 mph 1011.9mb 60f
12:20am  -  2 mph 1012.2mb 60f
12:10am 1 2 mph 1012.5mb 60f
12:00am  -  2 mph 1012.5mb 60f
Fri 09/15 11:50pm 2 3 mph 1012.9mb 60f
11:40pm 1 2 mph 1012.9mb 60f
11:30pm 1 5 mph 1012.9mb 60f
11:20pm 3 6 mph 1012.9mb 60f
11:10pm 5 9 mph 1012.9mb 60f
11:00pm 6 13 mph 1012.9mb 60f
10:50pm 10 14 mph 1013.2mb 60f
10:40pm 13 15 mph 1013.2mb 60f
10:30pm 11 14 mph 1013.5mb 60f
10:20pm 13 14 mph 1013.5mb 60f
10:10pm 11 14 mph 1013.5mb 60f